Temp
65 65 64 64 64 64 64 64 64 64 64 64 64 65 65 65 66 64 59 64 69 74 71 63 62 61 59 55 55 51 41 37 39 41 42 47 45 49 50 47 46 47 45 45 47
65 64 64 64 64 64 64 64 64 64 64 64 64 65 65 64 61 60 70 75 75 73 64 60 59 60 53 52 51 46 39 42 46 45 43 47 47 47 45 45 44 44 46 47 46
64 63 63 63 64 64 64 64 64 64 64 64 65 65 64 61 58 58 73 74 74 70 62 60 59 58 51 50 49 45 42 46 47 49 50 47 45 49 45 42 45 44 45 45 43
63 63 63 63 63 63 64 64 64 64 64 65 65 65 64 60 47 61 73 73 73 67 63 60 58 52 47 46 48 45 47 49 50 50 49 46 49 45 46 45 48 48 47 44 42
63 62 62 62 62 62 63 64 65 65 64 65 65 64 62 57 54 67 70 69 66 64 58 57 54 49 45 44 47 44 45 49 49 49 48 50 46 46 46 47 47 47 46 43 41
62 62 62 62 62 62 62 63 64 64 64 64 65 64 60 51 63 65 64 66 63 61 58 57 52 51 49 46 45 45 46 46 48 48 49 46 45 45 46 46 46 46 43 42 41
63 62 61 61 61 62 63 63 64 64 64 65 65 66 60 55 61 64 64 60 61 60 57 56 55 54 49 45 50 46 42 45 45 46 46 46 41 42 45 46 45 45 44 42 42
62 61 61 61 61 61 62 63 63 63 64 65 66 61 53 65 63 64 63 61 63 62 60 58 58 54 50 48 48 42 40 36 43 45 46 45 37 43 44 44 43 44 43 42 42
61 61 61 61 61 61 61 62 63 64 64 66 62 58 51 69 63 61 61 59 60 60 60 64 56 48 48 41 38 38 32 33 41 45 44 41 38 43 43 43 42 42 41 41 41
61 60 60 60 60 60 61 63 64 65 65 67 64 56 60 57 60 61 60 60 58 56 56 54 47 43 40 39 32 32 31 34 34 42 40 38 39 44 44 42 42 40 40 39 40
60 59 59 60 60 61 61 60 59 57 59 53 52 53 57 62 60 61 59 57 56 53 44 46 41 35 36 37 38 37 32 32 37 43 39 36 37 43 43 39 39 38 38 38 39
59 59 59 59 60 61 57 53 48 52 51 55 56 56 58 57 55 59 60 53 51 43 45 43 37 42 45 43 40 38 33 34 39 42 38 36 37 40 40 40 39 38 37 38 38
59 58 58 59 61 57 52 50 54 51 51 53 56 55 56 58 51 54 57 50 47 43 41 39 42 46 44 40 40 35 33 33 35 39 36 34 33 36 39 38 39 40 40 40 39
58 58 58 58 59 53 51 55 54 52 45 50 53 55 57 55 50 57 55 51 48 41 41 40 45 43 41 40 38 35 39 38 37 32 29 33 28 33 35 38 38 39 38 39 39
58 58 58 59 55 52 54 54 52 53 32 49 53 61 56 53 51 54 54 53 43 43 42 40 40 40 40 40 41 40 40 37 34 31 27 29 28 33 33 37 40 40 39 39 39
58 57 58 57 54 52 54 52 53 44 32 45 50 49 49 51 52 53 51 53 49 44 43 41 45 42 41 43 42 44 37 34 31 30 25 27 27 31 33 38 37 38 39 40 39
57 57 58 57 53 53 53 52 43 36 47 44 44 47 44 45 48 48 45 42 40 38 36 40 40 42 44 39 40 40 33 27 26 24 26 30 28 34 39 40 41 40 40 38 39
57 57 57 57 53 53 52 50 36 42 42 46 45 45 41 44 43 45 41 40 39 38 33 32 33 39 42 39 36 35 33 27 24 22 25 29 26 35 38 38 39 40 41 39 38
56 53 53 54 54 52 52 40 41 42 45 43 44 39 40 43 40 41 37 39 39 40 34 32 35 41 42 41 41 33 31 33 29 22 21 26 31 38 37 39 39 40 39 39 39
50 51 52 54 53 52 47 43 42 46 47 45 40 40 36 39 39 38 37 41 41 42 39 36 32 38 40 41 39 36 38 29 28 24 21 24 26 32 37 37 40 39 38 38 38
50 51 54 53 53 49 42 41 44 48 47 43 40 39 40 37 37 36 38 42 44 42 39 37 35 35 37 35 35 34 31 31 30 27 23 19 26 37 38 40 40 39 38 37 37
48 47 53 52 47 39 41 43 48 45 46 45 43 43 41 40 37 37 39 42 46 44 39 38 33 28 35 36 37 35 35 34 28 27 26 26 31 38 39 39 40 39 39 36 35
44 45 52 52 43 41 42 45 46 44 44 44 43 45 42 41 38 40 41 45 45 44 40 40 33 28 32 32 33 33 34 36 36 35 29 28 32 38 37 35 37 37 36 36 35
45 44 47 46 42 41 40 43 43 45 45 45 44 43 40 39 41 38 39 45 44 45 49 46 34 34 33 37 36 32 35 37 40 30 33 33 37 39 39 38 37 36 34 33 33
44 43 41 41 43 40 40 41 41 42 43 44 41 43 42 37 37 37 39 40 42 47 45 43 31 32 37 39 40 38 37 39 35 38 32 37 38 44 43 40 36 36 35 34 32
45 43 40 40 41 38 42 41 43 44 44 42 41 44 42 40 45 43 44 41 43 39 41 39 34 30 32 34 36 33 37 38 38 39 39 40 38 49 35 36 35 35 34 33 32
45 45 47 46 39 39 40 43 44 44 47 47 46 45 42 45 49 50 50 49 48 42 39 37 34 30 30 31 32 30 35 37 35 36 38 33 40 41 33 35 34 33 33 31 30
MSLP
1019.09 1018.76 1018.50 1018.18 1017.84 1017.56 1017.37 1017.34 1017.18 1017.06 1016.89 1016.76 1016.65 1016.57 1016.42 1016.14 1015.80 1015.55 1015.82 1016.22 1015.54 1014.67 1014.27 1014.19 1014.11 1014.17 1014.44 1015.50 1016.17 1016.78 1018.38 1019.66 1019.48 1019.32 1019.04 1019.03 1019.34 1019.70 1020.07 1020.59 1021.42 1021.97 1022.42 1022.93 1023.13
1019.19 1018.82 1018.56 1018.23 1017.91 1017.67 1017.48 1017.31 1017.12 1017.02 1016.91 1016.81 1016.70 1016.60 1016.47 1016.29 1016.08 1015.99 1016.02 1015.58 1015.06 1014.57 1014.48 1014.59 1014.70 1014.77 1015.75 1016.39 1016.92 1017.59 1018.89 1019.12 1018.98 1018.87 1018.94 1019.11 1019.39 1019.81 1020.33 1020.91 1021.43 1022.01 1022.52 1022.88 1023.21
1019.46 1019.09 1018.73 1018.37 1018.06 1017.81 1017.53 1017.35 1017.15 1017.07 1016.97 1016.82 1016.70 1016.52 1016.37 1016.34 1016.29 1016.31 1015.81 1015.37 1014.89 1014.64 1014.65 1014.72 1014.89 1015.35 1016.49 1017.01 1017.79 1018.11 1018.78 1018.87 1018.81 1018.77 1018.83 1019.11 1019.42 1019.80 1020.46 1021.01 1021.26 1021.77 1022.41 1022.94 1023.34
1019.59 1019.19 1018.81 1018.46 1018.11 1017.86 1017.62 1017.41 1017.23 1017.12 1017.02 1016.86 1016.62 1016.41 1016.24 1016.26 1016.92 1016.30 1015.89 1015.41 1015.00 1014.68 1014.67 1015.06 1015.28 1016.17 1017.22 1017.73 1017.95 1018.45 1018.76 1018.75 1018.82 1018.76 1018.87 1019.20 1019.48 1019.94 1020.47 1020.59 1020.90 1021.43 1022.10 1022.99 1023.46
1019.66 1019.28 1018.85 1018.47 1018.18 1017.92 1017.70 1017.48 1017.32 1017.19 1017.04 1016.81 1016.54 1016.25 1016.14 1016.59 1016.94 1016.26 1016.02 1015.59 1015.14 1015.16 1015.62 1015.81 1016.18 1016.90 1017.60 1017.97 1018.18 1018.49 1018.73 1018.79 1018.85 1018.81 1018.91 1019.19 1019.49 1019.89 1020.28 1020.76 1021.40 1021.98 1022.55 1023.10 1023.34
1019.58 1019.24 1018.82 1018.41 1018.14 1017.90 1017.70 1017.54 1017.36 1017.17 1016.95 1016.66 1016.38 1016.10 1016.19 1017.06 1016.62 1016.55 1016.28 1015.83 1015.91 1015.99 1016.32 1016.32 1016.83 1017.04 1017.68 1018.21 1018.45 1018.66 1018.74 1018.75 1018.82 1018.90 1019.04 1019.39 1019.61 1020.07 1020.28 1020.85 1021.67 1022.14 1022.59 1023.07 1023.42
1019.67 1019.23 1018.85 1018.50 1018.17 1017.90 1017.66 1017.40 1017.23 1017.04 1016.82 1016.58 1016.32 1016.12 1016.63 1017.06 1016.66 1016.53 1016.37 1016.27 1016.31 1016.38 1016.62 1016.82 1016.89 1017.06 1017.88 1018.50 1018.82 1018.90 1019.13 1019.10 1019.10 1019.12 1019.22 1019.47 1019.88 1020.14 1020.30 1021.02 1021.73 1022.27 1022.64 1023.07 1023.30
1019.81 1019.24 1018.79 1018.46 1018.14 1017.79 1017.53 1017.34 1017.17 1016.99 1016.73 1016.46 1016.32 1016.31 1016.80 1016.49 1016.54 1016.56 1016.52 1016.38 1016.40 1016.41 1016.63 1016.89 1016.94 1017.63 1018.54 1018.92 1019.41 1019.85 1019.86 1019.97 1019.45 1019.40 1019.55 1019.82 1019.80 1019.73 1020.32 1021.08 1021.66 1022.08 1022.71 1022.98 1023.19
1019.90 1019.41 1018.90 1018.45 1018.03 1017.63 1017.35 1017.11 1016.91 1016.79 1016.66 1016.42 1016.40 1016.54 1017.06 1016.47 1016.74 1017.03 1016.98 1017.01 1016.81 1016.67 1016.85 1016.91 1017.41 1019.06 1019.40 1020.02 1020.61 1020.95 1021.07 1020.84 1020.01 1019.62 1019.70 1020.02 1019.92 1019.66 1020.30 1021.02 1021.52 1021.94 1022.30 1022.66 1022.87
1019.81 1019.46 1019.02 1018.42 1017.96 1017.55 1017.21 1017.05 1016.81 1016.63 1016.63 1016.54 1016.95 1017.42 1017.29 1017.75 1017.48 1017.32 1017.08 1017.02 1017.16 1017.17 1017.39 1017.96 1018.92 1020.07 1020.81 1020.92 1021.76 1021.85 1021.79 1021.35 1020.99 1020.15 1020.06 1020.25 1019.82 1019.53 1019.90 1020.58 1020.96 1021.50 1022.00 1022.44 1022.65
1019.91 1019.54 1018.99 1018.47 1018.00 1017.57 1017.12 1017.13 1017.86 1017.95 1017.81 1018.21 1018.23 1018.11 1018.01 1017.86 1017.64 1017.46 1017.43 1017.38 1017.55 1018.06 1018.97 1019.39 1020.11 1021.11 1021.25 1021.40 1021.51 1021.65 1021.88 1021.88 1020.96 1020.51 1020.66 1020.32 1020.17 1019.50 1019.51 1020.02 1020.63 1021.26 1021.61 1021.97 1022.29
1020.09 1019.58 1019.01 1018.55 1018.03 1017.76 1017.87 1018.99 1019.94 1020.26 1019.42 1018.62 1018.38 1018.24 1018.13 1018.22 1018.07 1017.82 1017.48 1017.94 1018.32 1019.17 1019.44 1019.92 1020.57 1020.73 1020.80 1021.04 1021.28 1021.47 1021.68 1021.63 1021.02 1020.82 1021.11 1020.45 1019.87 1019.17 1019.33 1019.58 1019.93 1020.56 1021.16 1021.45 1022.05
1020.22 1019.64 1019.02 1018.55 1018.14 1018.33 1019.35 1020.10 1020.24 1020.20 1019.70 1018.91 1018.44 1018.25 1018.25 1018.31 1018.52 1018.47 1018.34 1018.64 1019.03 1019.47 1019.91 1020.09 1020.33 1020.23 1020.39 1020.68 1021.08 1021.19 1021.51 1021.57 1021.78 1021.21 1021.00 1020.84 1019.70 1018.98 1018.89 1019.17 1019.44 1019.87 1020.41 1020.98 1021.46
1020.36 1019.82 1019.10 1018.39 1018.73 1019.65 1020.06 1020.30 1020.28 1020.33 1020.09 1019.34 1018.58 1018.23 1018.28 1018.36 1018.72 1018.58 1018.68 1018.99 1019.32 1019.81 1020.03 1020.16 1020.02 1020.13 1020.30 1020.62 1021.13 1021.32 1021.19 1021.61 1021.82 1021.99 1022.01 1021.36 1020.47 1018.99 1018.69 1018.87 1019.18 1019.60 1020.10 1020.64 1021.23
1020.46 1019.93 1019.39 1018.46 1019.48 1020.19 1020.65 1020.33 1020.27 1020.32 1020.58 1019.57 1018.59 1018.10 1018.32 1018.76 1019.07 1018.75 1019.01 1018.87 1019.59 1020.03 1020.39 1020.26 1020.19 1020.26 1020.36 1020.55 1020.95 1021.00 1021.10 1021.49 1021.79 1022.28 1022.51 1021.76 1021.83 1018.76 1018.70 1018.62 1018.55 1018.76 1019.49 1019.93 1020.50
1020.55 1020.05 1019.59 1019.50 1019.91 1020.50 1020.45 1020.37 1020.35 1020.65 1019.95 1019.30 1018.84 1018.79 1018.88 1019.06 1019.23 1019.18 1019.27 1019.38 1019.89 1020.20 1020.40 1020.45 1020.33 1020.40 1020.37 1020.54 1020.87 1021.11 1021.30 1021.77 1022.39 1022.69 1022.80 1022.05 1021.87 1019.10 1018.51 1017.76 1017.81 1018.21 1018.58 1019.22 1019.96
1020.62 1020.16 1019.71 1020.06 1020.59 1020.43 1020.46 1020.54 1020.89 1020.92 1020.12 1019.83 1019.52 1019.49 1019.74 1019.85 1019.78 1019.99 1020.19 1020.44 1020.91 1021.06 1021.36 1020.95 1020.59 1020.49 1020.59 1020.81 1021.04 1021.44 1021.97 1022.53 1022.95 1022.97 1022.60 1021.99 1021.76 1018.66 1017.49 1017.25 1017.23 1017.81 1018.26 1018.80 1019.47
1020.58 1020.26 1020.39 1020.47 1020.58 1020.58 1020.71 1020.80 1021.05 1020.43 1020.14 1020.04 1019.98 1019.90 1020.09 1020.22 1020.31 1020.43 1020.78 1021.20 1021.34 1021.69 1022.25 1022.26 1020.93 1020.78 1020.84 1021.09 1021.51 1022.23 1022.89 1023.76 1024.22 1024.14 1023.09 1022.15 1020.77 1017.85 1017.13 1017.14 1017.46 1017.90 1018.37 1018.76 1019.40
1020.56 1020.69 1020.90 1021.05 1020.90 1020.84 1020.93 1021.51 1020.78 1020.45 1020.28 1020.32 1020.31 1020.30 1020.38 1020.51 1020.82 1020.83 1021.03 1021.39 1021.45 1021.69 1022.25 1022.53 1021.65 1020.95 1021.08 1021.30 1021.80 1022.66 1023.23 1023.56 1024.06 1024.35 1024.17 1021.66 1019.86 1017.58 1016.98 1017.03 1017.40 1017.89 1018.23 1018.91 1019.62
1021.38 1021.35 1021.36 1021.19 1021.14 1021.17 1021.54 1021.54 1020.96 1020.52 1020.44 1020.49 1020.59 1020.65 1020.86 1020.81 1021.10 1021.19 1021.14 1021.18 1021.50 1021.78 1021.97 1022.67 1022.62 1021.58 1021.61 1021.79 1022.33 1022.69 1023.29 1023.88 1024.56 1024.77 1024.01 1021.36 1020.26 1018.24 1017.19 1017.05 1017.28 1017.85 1018.45 1019.19 1019.89
1021.70 1021.85 1021.55 1021.35 1021.29 1021.55 1022.12 1021.60 1020.99 1020.72 1020.76 1020.98 1020.94 1021.00 1021.15 1021.26 1021.47 1021.68 1021.40 1021.25 1021.31 1021.92 1022.26 1022.75 1023.38 1022.47 1022.16 1022.01 1022.14 1023.00 1023.34 1023.89 1024.38 1024.32 1024.00 1022.24 1019.09 1016.95 1016.91 1016.62 1016.96 1017.65 1018.48 1019.29 1020.06
1022.74 1022.69 1021.94 1021.68 1022.09 1022.40 1022.17 1021.41 1020.98 1020.86 1020.93 1021.03 1021.14 1021.15 1021.22 1021.35 1021.56 1021.74 1021.58 1021.15 1021.08 1021.57 1022.46 1022.90 1023.62 1023.48 1022.19 1021.69 1021.81 1022.21 1022.57 1022.97 1023.61 1023.30 1022.90 1022.04 1017.49 1016.43 1016.86 1016.96 1017.21 1018.05 1018.69 1019.50 1020.26
1023.83 1023.25 1022.19 1022.08 1022.66 1022.61 1022.01 1021.60 1021.18 1021.14 1021.12 1021.31 1021.33 1021.31 1021.41 1021.64 1021.87 1021.38 1021.16 1020.66 1021.11 1021.48 1021.77 1022.64 1023.34 1023.22 1022.04 1022.18 1021.99 1021.84 1021.63 1021.66 1021.94 1021.92 1020.87 1020.75 1017.18 1016.48 1016.70 1017.38 1017.80 1018.36 1019.09 1019.71 1020.43
1024.19 1024.00 1022.86 1022.77 1023.14 1022.71 1022.35 1021.68 1021.39 1021.11 1021.11 1021.14 1021.16 1021.23 1021.51 1021.61 1021.51 1021.36 1021.19 1020.72 1021.07 1021.21 1021.48 1022.09 1022.79 1022.72 1021.90 1020.92 1020.77 1021.01 1020.78 1020.74 1020.84 1020.89 1019.22 1018.05 1015.72 1016.33 1017.19 1017.79 1018.22 1018.72 1019.57 1020.11 1020.66
1024.32 1024.45 1024.24 1023.92 1023.37 1023.05 1022.75 1022.10 1021.69 1021.38 1021.33 1021.26 1021.27 1021.25 1021.27 1021.50 1021.42 1021.44 1021.21 1021.09 1021.25 1021.25 1021.83 1022.54 1022.62 1022.13 1020.78 1020.38 1020.20 1019.43 1019.62 1019.69 1019.64 1017.75 1018.49 1015.40 1015.44 1013.98 1016.18 1016.77 1017.86 1019.11 1019.97 1020.47 1021.03
1024.74 1024.32 1024.57 1023.91 1023.36 1023.04 1022.52 1022.07 1021.60 1021.05 1021.15 1021.17 1021.27 1020.63 1021.00 1021.00 1020.31 1020.49 1020.68 1021.14 1021.05 1021.61 1021.99 1022.32 1021.96 1021.69 1019.78 1019.87 1019.41 1018.54 1018.13 1017.63 1017.36 1016.65 1016.84 1015.73 1014.79 1014.58 1016.08 1016.96 1018.15 1019.27 1020.19 1020.81 1021.54
1024.17 1024.21 1024.03 1023.55 1023.33 1023.08 1022.35 1021.36 1021.00 1020.98 1020.32 1020.30 1020.56 1020.84 1020.67 1020.02 1020.03 1019.53 1019.70 1019.98 1020.03 1020.66 1021.45 1021.91 1022.25 1021.96 1020.09 1019.54 1019.27 1017.55 1015.26 1015.42 1015.45 1015.04 1015.11 1015.55 1014.08 1015.40 1016.38 1017.48 1018.61 1019.65 1020.72 1021.55 1022.06
Wind_Speed
16 16 15 13 13 10 8 6 4 3 4 4 5 6 8 11 8 5 8 6 9 16 11 6 3 6 5 5 5 3 6 2 4 5 1 1 2 2 1 4 3 3 2 2 3
16 16 14 13 12 9 7 6 5 4 4 4 4 6 7 8 2 6 2 15 14 11 5 6 6 6 5 5 5 6 5 4 2 1 0 2 1 4 2 2 0 1 2 3 4
16 15 13 12 11 10 9 7 6 5 4 3 5 6 7 3 3 4 11 17 15 10 2 1 2 5 6 4 6 2 3 3 1 0 3 2 1 3 3 3 6 6 5 3 3
16 15 14 12 12 11 9 7 6 5 5 5 6 7 6 0 2 4 16 16 12 9 4 6 6 5 5 5 4 6 2 2 3 1 2 2 3 1 5 3 1 5 6 4 2
17 16 14 14 12 11 9 8 7 6 6 7 8 8 2 7 3 6 14 11 5 5 8 4 7 3 4 3 3 4 1 1 2 1 1 3 3 4 5 4 7 7 6 5 2
19 17 15 14 13 10 8 6 6 6 7 9 10 4 5 7 3 7 8 5 6 5 7 8 3 2 5 3 4 0 1 1 1 1 1 2 2 1 1 7 6 6 5 4 2
19 17 15 14 12 10 8 7 6 7 8 7 9 3 8 2 2 6 8 3 3 3 4 3 1 5 1 2 4 1 2 4 2 1 0 1 2 6 3 7 7 6 5 4 2
19 18 17 15 12 10 9 7 7 7 9 8 7 3 2 2 2 5 7 3 6 3 3 3 3 6 5 1 7 6 5 5 2 1 2 3 7 3 6 8 9 8 6 6 4
19 18 17 15 13 11 10 8 5 7 6 6 4 4 2 6 6 5 5 4 5 3 6 3 7 5 7 4 5 8 3 3 9 2 2 3 7 3 4 7 8 7 8 7 6
19 18 17 15 13 11 10 4 6 5 4 2 2 4 6 5 5 4 4 3 5 2 5 9 7 5 5 6 1 4 4 4 6 4 2 4 14 10 6 8 10 8 7 7 7
19 18 16 14 12 11 5 4 6 5 10 4 1 2 4 7 2 5 4 3 4 9 5 5 8 2 3 1 2 3 3 5 6 5 4 5 9 15 6 5 8 8 8 8 8
19 18 17 15 10 7 5 6 3 1 4 0 1 2 1 1 5 8 4 5 6 3 4 6 2 3 3 2 2 4 3 6 6 3 2 6 12 10 4 5 5 8 8 9 4
19 19 18 16 5 6 5 3 2 2 4 2 1 1 3 3 1 6 5 2 4 3 3 4 1 2 1 2 6 3 4 3 5 6 3 6 7 3 2 3 2 4 5 6 9
19 18 17 16 7 2 4 4 2 1 5 4 3 3 2 1 2 2 2 2 4 1 0 1 0 0 1 2 3 5 2 3 6 3 4 3 7 5 3 5 4 6 7 8 7
19 18 14 11 4 4 3 3 2 3 4 1 4 1 3 4 3 3 2 4 2 1 1 3 2 2 1 2 4 9 3 4 1 1 3 1 2 8 3 5 7 8 9 9 8
19 18 10 5 4 0 2 3 3 8 6 1 1 4 3 4 5 7 5 7 1 1 3 3 2 2 2 2 3 6 3 2 3 2 2 1 3 7 4 6 2 2 5 7 8
18 13 4 1 0 0 1 3 7 5 2 2 2 4 1 4 4 6 5 6 3 5 6 6 2 1 0 3 1 7 5 5 7 5 5 2 2 11 5 5 4 4 4 2 5
17 6 5 2 1 1 3 6 1 1 4 1 1 2 1 3 1 4 2 3 1 4 3 3 8 1 1 1 0 3 3 5 5 4 6 4 7 7 4 2 2 3 5 3 3
9 3 2 4 2 2 5 4 7 5 1 2 1 1 3 1 1 3 2 3 4 4 2 1 6 2 1 1 3 1 1 1 1 1 2 4 8 10 3 5 4 6 3 5 6
2 2 2 4 3 4 6 6 3 2 3 1 4 2 3 2 2 3 1 3 2 3 2 3 6 0 1 2 3 2 4 2 2 5 7 5 7 8 5 4 5 4 2 4 4
4 4 2 3 3 5 3 6 4 2 1 2 3 2 5 2 1 2 3 3 4 4 2 4 3 5 1 5 7 1 1 2 2 4 4 5 7 7 6 7 7 6 3 3 5
3 4 3 3 4 1 2 3 1 2 1 3 2 6 6 4 3 4 6 6 7 7 5 4 4 5 12 2 1 2 6 7 5 5 5 2 15 2 6 5 7 7 5 3 3
2 3 2 2 1 2 3 4 3 3 3 4 3 5 3 5 3 6 5 2 8 8 8 7 3 5 7 2 1 5 6 6 2 2 10 6 11 1 4 3 4 7 4 2 4
2 4 4 4 1 1 2 4 3 2 2 4 4 3 3 4 5 3 4 3 6 6 6 7 5 9 11 11 4 6 7 8 11 5 11 18 30 11 5 8 7 6 4 3 4
2 3 2 4 2 1 0 2 2 3 3 3 2 7 8 5 3 6 4 4 3 5 4 5 7 7 16 18 14 19 17 17 18 25 16 31 25 26 7 8 4 5 3 2 3
2 3 0 2 2 2 4 4 5 4 6 5 6 2 7 7 9 4 6 5 7 2 6 3 7 3 15 12 17 21 18 21 23 28 21 29 33 22 4 6 5 5 3 2 0
2 1 1 1 2 3 5 6 4 2 5 3 7 2 4 14 12 11 6 4 5 8 9 7 3 2 13 2 6 14 16 19 8 8 9 17 22 8 6 6 5 4 2 1 0
Wind_Direction
5 3 1 354 356 352 348 351 336 329 321 324 326 324 330 337 334 29 38 288 310 317 329 303 21 7 40 58 40 93 65 130 181 169 215 136 108 44 112 92 55 21 84 109 6
4 1 2 2 3 3 6 7 1 4 352 345 328 318 324 334 31 41 250 339 333 340 5 26 11 15 48 20 22 67 82 194 183 198 125 123 120 158 149 95 46 111 122 117 39
7 5 2 3 7 10 16 27 27 29 24 353 327 318 318 318 66 320 339 342 346 348 172 83 61 57 55 22 356 53 132 172 180 144 137 119 138 158 142 241 203 206 173 142 38
6 6 3 4 5 8 11 21 27 27 8 345 326 315 311 211 51 285 341 341 356 15 57 34 29 51 66 53 339 88 94 178 158 112 130 162 129 232 181 233 180 137 131 121 78
4 5 1 358 358 1 2 2 7 6 348 335 333 334 78 40 344 315 336 347 19 26 46 46 51 75 84 75 39 71 198 47 109 142 156 123 251 234 233 137 112 110 105 133 140
4 4 360 357 354 353 353 352 348 346 341 337 339 320 77 64 283 333 340 6 32 35 19 37 78 81 92 60 75 98 162 330 179 253 273 213 250 51 277 139 138 139 156 163 139
5 359 356 353 350 347 343 341 334 334 332 335 345 65 64 171 337 330 9 9 15 36 51 29 32 78 70 57 339 65 330 341 36 285 231 90 254 228 175 162 168 188 182 177 195
2 360 355 351 348 344 334 322 316 326 323 329 335 67 88 309 311 13 345 352 8 36 79 31 63 94 52 327 18 32 47 11 329 24 348 66 270 228 166 167 200 197 193 206 219
1 360 354 350 346 342 324 311 306 316 301 315 37 78 344 326 26 322 21 347 313 9 35 65 62 71 22 52 13 12 327 328 318 224 256 178 266 234 153 196 218 207 203 211 225
358 356 351 348 343 342 320 293 321 8 355 32 57 42 5 311 306 340 335 18 36 353 19 36 48 61 28 41 324 300 330 302 255 299 287 267 266 275 231 201 223 211 212 217 230
355 351 349 347 342 346 17 20 20 351 38 97 185 167 302 293 282 350 6 9 29 51 41 4 62 26 283 247 265 247 240 255 260 277 299 248 269 279 284 231 230 222 215 222 228
352 349 347 343 344 4 62 76 70 158 70 271 273 317 270 335 8 336 15 62 50 49 340 26 63 246 251 217 269 258 274 271 285 262 247 303 280 270 244 256 215 218 222 226 207
351 349 344 340 331 38 71 104 331 321 99 323 9 355 305 31 60 315 33 71 75 60 19 133 203 303 118 335 356 280 220 259 256 309 238 316 289 260 238 281 262 237 224 223 213
348 348 344 331 48 313 43 331 349 323 68 304 343 350 342 56 33 319 18 87 27 116 162 206 287 153 195 255 114 303 207 285 294 18 287 28 286 283 242 268 249 253 234 240 228
345 345 344 29 143 54 301 330 337 48 17 300 314 323 338 78 295 358 15 37 87 318 93 274 315 355 335 232 159 242 346 278 278 177 360 289 65 268 6 265 250 237 236 238 226
343 339 335 20 52 276 324 0 45 44 264 349 316 345 23 14 346 321 27 41 104 104 2 264 314 190 251 296 203 316 334 76 59 92 357 346 115 277 206 211 196 235 237 238 224
341 340 29 63 348 338 50 40 35 133 11 314 337 30 348 319 349 30 15 12 52 16 6 334 247 300 101 328 63 22 19 342 353 4 229 293 278 248 243 234 191 223 260 263 217
337 356 3 50 348 51 47 49 178 247 230 17 341 320 293 0 338 350 41 345 139 74 77 32 331 174 155 145 315 33 110 145 288 282 284 312 240 252 210 291 237 276 279 312 257
332 3 32 345 357 39 69 67 217 200 150 193 304 350 307 300 246 356 220 217 210 170 112 42 277 282 63 93 100 140 211 152 256 264 347 246 284 291 234 259 234 251 322 353 327
36 18 7 332 360 51 76 237 228 208 146 140 208 182 247 264 333 1 272 195 189 165 129 175 304 237 3 82 34 158 164 13 34 308 292 274 274 247 292 237 212 230 307 351 356
32 25 296 7 52 50 184 229 243 236 134 170 232 227 227 289 221 262 258 267 184 167 95 139 135 284 314 195 182 114 251 85 162 175 224 290 258 211 228 213 197 181 121 61 3
22 346 331 6 41 31 213 212 282 199 132 234 216 206 195 183 228 237 234 231 173 152 166 195 152 259 237 167 132 177 205 171 166 228 233 206 267 182 246 234 163 164 146 64 12
29 268 329 73 242 286 287 287 244 176 216 188 239 206 182 211 238 202 221 253 170 164 171 185 212 310 320 29 35 208 204 205 232 326 230 243 262 61 83 156 182 167 145 47 7
42 337 324 51 50 162 312 265 278 230 235 192 209 142 161 238 226 260 249 241 195 207 169 152 192 197 241 252 172 212 208 202 209 221 261 242 271 229 204 225 212 186 119 89 31
76 256 200 296 332 340 172 294 252 270 229 207 252 217 184 219 210 230 238 295 214 230 170 175 236 228 245 258 264 264 256 247 228 244 241 263 264 270 245 241 183 144 148 100 45
271 159 351 249 256 201 189 237 216 251 167 240 218 220 194 220 201 214 188 205 225 124 178 192 255 223 276 233 240 266 256 251 247 255 252 254 268 279 108 115 132 163 169 157 34
194 275 144 213 204 141 223 215 229 183 237 226 211 175 224 237 240 245 217 228 224 179 200 165 217 213 270 98 313 271 238 230 223 226 216 237 251 194 168 154 166 176 182 186 249